User: anonymous   Login
Location: ??
(35.5052°N, 139.7262°E)
Time: 02:28:36
(UTC+00:00)
Language:

Cosmos 1346 Rocket - Orbit

View from above orbital plane
View from above orbital plane
View from above satellite
View from above satellite

Ground track
Ground track

The orbit data is extracted from the following two-line orbital elements,

1 13121U 82027B   21269.56094558  .00000394  00000-0  23206-4 0  9992
2 13121  81.1729 123.2395 0014470 330.5452  29.4956 15.09283967152273
Epoch (UTC): 26 September 2021 13:27:45
Eccentricity: 0.0014470
inclination: 81.1729°
perigee height: 528 km
apogee height: 548 km
right ascension of ascending node: 123.2395°
argument of perigee: 330.5452°
revolutions per day: 15.09283967
mean anomaly at epoch: 29.4956°
orbit number at epoch: 15227

The dashed part of the orbit path shows where the satellite is in the earth's shadow,  

DLR